Location: Old Broadwell Mill Observatory
(33.8015°N, 85.8137°W)
Time: 20:43:35
(UTC-05:00)

Daily predictions for brighter satellites

Satellite Brightness Start Highest point End
(mag) Time Altitude Azimuth Time Altitude Azimuth Time Altitude Azimuth
Cosmos 1939 Rocket 2.9 20:21:28 10° SSE 20:25:31 67° ENE 20:29:33 10° N
Cosmos 1603 3.9 20:22:05 10° NNW 20:27:49 79° WSW 20:33:32 10° SSE
Cosmos 2056 Rocket 3.6 20:23:36 10° NNW 20:28:48 87° WSW 20:34:03 10° SSE
Cosmos 1624 Rocket 4.3 20:28:07 10° NNW 20:33:27 74° WSW 20:38:43 10° S
Cosmos 1758 3.7 20:32:45 10° NNW 20:36:50 70° W 20:40:51 10° S
Cosmos 972 4.3 20:32:09 10° S 20:37:09 70° ESE 20:42:00 10° NNE
Cosmos 1378 4.0 20:37:12 10° SSW 20:40:50 53° W 20:44:29 10° N
Cosmos 1707 2.7 20:37:20 10° S 20:41:11 88° E 20:45:03 10° N
Cosmos 1607 4.1 20:37:43 10° NNW 20:44:04 69° ENE 20:50:02 11° SE
Cosmos 1626 Rocket 4.4 20:39:50 10° SSW 20:44:12 54° W 20:48:34 10° N
H-2A R/B 3.6 20:40:38 10° ESE 20:44:33 22° ENE 20:48:32 10° NNE
Meteor 2-11 Rocket 4.4 20:39:18 10° S 20:45:19 73° E 20:51:23 10° N
SJ-11-01 4.3 20:43:22 10° SSE 20:48:07 81° ENE 20:52:52 10° N
Cosmos 1315 Rocket 3.4 20:46:48 10° SSE 20:50:30 37° E 20:54:18 10° NNE
Cosmos 1269 Rocket 4.5 20:47:24 10° S 20:52:19 40° ESE 20:57:16 10° NNE
OAO 3 Copernicus 4.4 20:47:35 10° W 20:52:41 83° N 20:57:40 10° E
Resurs 1-3 3.7 20:49:21 10° S 20:53:42 80° WSW 20:58:07 10° NNW
Cosmos 1953 3.0 20:51:54 10° NNW 20:55:49 56° W 20:59:43 10° S
Hubble Space Telescope 2.7 20:57:40 10° WSW 21:00:24 17° SSW 21:02:30 12° SSE
H-II Stage 2 3.5 20:56:48 10° SW 21:00:43 16° S 21:01:49 15° SSE
USA 186 3.8 20:59:25 10° SSW 21:02:13 26° W 21:04:57 10° NW
BREEZE-M R/B 1.8 21:00:09 10° NW 21:03:19 75° SW 21:04:34 25° SE
Cosmos 1812 Rocket 3.7 21:01:09 10° N 21:05:30 73° W 21:09:52 10° S
Cosmos 2278 Rocket 3.9 21:08:20 13° E 21:08:24 13° E 21:10:47 10° ENE
ERS-2 2.4 21:05:22 11° S 21:08:52 68° WSW 21:12:31 10° NNW
Cosmos 1943 3.7 21:04:05 10° NNW 21:09:38 59° WSW 21:15:08 10° S
Cosmos 1953 Rocket 3.7 21:06:08 12° SSE 21:10:01 53° E 21:14:17 10° NNE
ATLAS 2AS CENTAUR R/B 3.0 21:06:41 10° SSW 21:14:16 73° ESE 21:22:21 10° NE
Cosmos 1238 Rocket 2.3 21:13:47 27° SSE 21:15:01 47° E 21:17:52 10° NNE
Cosmos 1726 4.4 21:14:01 10° NE 21:15:14 11° ENE 21:15:28 11° ENE
Cosmos 1758 Rocket 3.5 21:11:01 10° S 21:15:28 80° E 21:19:55 10° N
Timation 1 Rocket 4.5 21:10:10 10° S 21:15:52 50° ESE 21:21:36 10° NNE
Lacrosse 5 2.7 21:11:36 10° SW 21:16:32 54° NW 21:21:30 10° NNE
Resurs 01 Rocket 2.6 21:12:37 10° S 21:16:49 44° W 21:21:03 10° NNW
OAO 3 Rocket 3.3 21:12:02 10° W 21:17:00 79° N 21:21:44 11° E
SEDSat Delta rocket 4.4 21:13:26 10° SSW 21:17:28 22° SSE 21:18:01 22° SSE
ARGOS 3.4 21:13:57 19° SE 21:17:46 57° ENE 21:23:04 10° N
SL-8 R/B 3.9 21:13:21 10° SW 21:18:10 76° NW 21:23:01 10° NE
Cosmos 1400 Rocket 4.4 21:14:29 10° SW 21:18:12 35° WNW 21:21:54 10° N
Aureole 1 Rocket 3.8 21:20:28 10° SW 21:23:19 37° WNW 21:26:37 10° N
Helios 1B rocket 4.4 21:21:49 10° ENE 21:23:15 14° E 21:23:15 14° E
Iridium 4 Rocket 3.8 21:22:24 10° S 21:28:09 79° W 21:33:34 10° N
MetOp-A 4.1 21:24:48 22° SSE 21:28:16 68° ENE 21:33:36 10° N
ERS-1 Rocket 3.6 21:26:47 25° ESE 21:29:05 40° ENE 21:33:46 10° N
Cosmos 1844 3.7 21:24:15 10° S 21:29:46 58° ESE 21:35:23 10° NNE
Cosmos 1844 Rocket 2.6 21:24:16 10° SSW 21:29:55 78° ESE 21:35:35 10° NNE
Cosmos 1346 Rocket 3.3 21:27:49 10° N 21:31:40 43° E 21:32:47 34° ESE
SL-08 RB Rocket 3.7 21:35:38 30° SSE 21:37:51 68° ENE 21:42:30 10° N
Meteor 1-24 Rocket 3.9 21:32:48 10° S 21:38:48 85° W 21:44:53 10° N
Aurora 2 Rocket 4.3 21:34:32 10° SW 21:40:40 40° SSE 21:45:05 24° ESE
ATLAS 3B CENTAUR R/B 4.3 21:22:11 10° SW 21:41:12 41° SSE 21:46:47 23° ESE
USA 215 3.6 21:40:27 24° SSE 21:44:30 59° SW 21:50:57 10° NW
Cosmos 921 Rocket 3.6 21:43:58 10° N 21:48:17 45° ENE 21:49:15 39° ESE
Cosmos 1244 Rocket 4.5 21:41:55 10° N 21:48:17 72° E 21:51:37 30° SSE
NOSS 3-4 (A) 3.9 21:50:38 33° SE 21:51:58 37° ESE 21:57:38 10° NE
NOSS 3-4 (C) 3.9 21:50:51 34° SE 21:52:03 37° ESE 21:57:43 10° NE
Cosmos 1437 3.1 21:57:37 10° NNW 22:00:43 54° W 22:00:49 54° WSW
Cosmos 1908 3.0 21:58:45 10° N 22:02:37 74° E 22:02:49 71° ESE
Cosmos 1461 3.6 22:08:00 43° E 22:08:00 43° E 22:11:49 10° NE
CARTOSAT-1 4.5 22:10:01 33° ENE 22:10:01 33° ENE 22:13:52 10° N
S3M 3.9 22:10:10 34° S 22:13:11 83° E 22:19:36 10° N
Cosmos 220 Rocket 3.7 22:13:14 76° SSE 22:13:30 82° ESE 22:17:44 10° NNE
Meteor 2-1 Rocket 4.2 22:08:29 10° N 22:14:26 87° E 22:16:23 45° S
Terra 2.6 22:14:51 35° ENE 22:15:05 35° ENE 22:19:24 10° N
CZ-2C R/B 3.7 22:13:14 10° NE 22:17:05 28° E 22:17:05 28° E
Cosmos 1340 3.1 22:14:55 10° N 22:18:05 53° NE 22:18:05 53° NE
IGS 5A 4.1 22:19:09 42° ENE 22:19:09 42° ENE 22:22:45 10° N
SPOT 1/Viking Rocket 3.4 22:22:20 60° SSE 22:23:17 86° ENE 22:28:27 10° NNW
H-2A R/B 3.1 22:21:14 26° SSW 22:23:37 40° W 22:28:38 10° NNW
Cosmos 1110 Rocket 3.9 22:20:19 10° NNW 22:25:29 81° WSW 22:26:21 62° S
Cosmos 1674 4.4 22:25:41 23° WSW 22:27:00 29° W 22:30:23 10° NNW
H-2A R/B (2) 4.2 22:28:30 36° SSE 22:30:01 38° SE 23:09:17 10° ENE
H-2A R/B (2) 4.2 22:28:30 36° SSE 22:30:01 38° SE 23:09:18 10° ENE
H-2A R/B (2) 4.2 22:28:29 36° SSE 22:30:01 38° SE 23:09:17 10° ENE
Cosmos 1300 3.9 22:29:16 10° N 22:31:48 35° NNE 22:31:48 35° NNE
Cosmos 2084 4.2 22:32:45 10° NW 22:35:44 41° W 22:35:44 41° W
Cosmos 1331 Rocket 4.1 22:34:40 10° NNW 22:39:50 66° WSW 22:40:25 61° SW
Cosmos 1842 Rocket 3.7 22:36:55 10° N 22:40:56 71° NW 22:40:56 71° NW
USA 238 DEB 3.7 22:35:10 10° NNW 22:42:23 89° ENE 22:44:13 55° SSE
USA 238 3.7 22:35:17 10° NNW 22:42:29 88° ENE 22:44:19 55° SSE
ATLAS 3B R/B 2.6 22:36:33 10° NNW 22:43:08 67° ENE 22:44:26 55° ESE
Helios 1A 3.7 22:45:57 46° W 22:45:57 46° W 22:49:46 10° NNW
SPOT 5 3.5 22:47:50 46° WSW 22:48:29 48° W 22:53:30 10° NNW
Cosmos 1726 3.7 22:47:11 10° NNW 22:50:03 31° WNW 22:50:03 31° WNW
Cosmos 2278 Rocket 2.4 22:50:05 45° SW 22:51:46 68° WNW 22:57:26 10° NNE
Cosmos 2315 Rocket 3.9 22:52:00 66° SE 22:52:33 70° E 22:58:51 10° NNE
Cosmos 883 Rocket 4.4 22:51:42 63° SSW 22:52:48 87° W 22:59:03 10° N
NOSS 3-2 (A) 4.1 22:47:42 10° NNW 22:55:27 72° ENE 22:57:41 51° ESE
Helios 1B rocket 3.8 22:55:41 10° N 22:59:24 34° WNW 22:59:36 34° W
OAO 3 Rocket 3.7 22:55:44 10° W 22:59:32 53° W 22:59:32 53° W
Cosmos 1302 Rocket 4.1 23:01:58 10° NNW 23:06:56 67° W 23:06:56 67° W
COSMOS 2406 3.7 23:02:42 10° NNW 23:08:13 48° WSW 23:08:28 47° WSW
CZ-2C R/B 3.3 23:09:46 74° SW 23:09:59 76° WSW 23:15:48 10° NNW
NOSS 3-2 (C) 4.1 23:12:13 10° NNW 23:20:00 75° ENE 23:21:37 60° ESE
Cosmos 2221 3.8 23:16:04 10° NNW 23:19:04 38° NW 23:19:04 38° NW
Aureole 3 Rocket 4.4 23:24:05 56° SSW 23:25:51 74° W 23:32:09 10° N
Cosmos 2297 3.9 23:34:22 69° N 23:34:22 69° N 23:39:24 10° NNE
ATLAS 5 CENTAUR R/B 2.9 23:35:21 37° NW 23:35:21 37° NW 23:39:30 10° NNE
Cosmos 2082 Rocket 2.6 23:38:28 10° NNW 23:43:22 59° NNE 23:43:22 59° NNE
RESURS DK-1 4.4 23:46:15 26° N 23:46:15 26° N 23:48:16 10° N
Cosmos 1833 Rocket 3.0 23:43:28 10° NNW 23:48:06 62° N 23:48:06 62° N
ADEOS Rocket 3.4 23:45:43 10° NNE 23:50:52 56° ENE 23:50:52 56° ENE
Terra 3.9 23:53:44 18° W 23:53:44 18° W 23:56:14 10° NW
